Time,TemperatureF,DewpointF,PressureIn,WindDirection,WindDirectionDegrees,WindSpeedMPH,WindSpeedGustMPH,Humidity,HourlyPrecipIn,Conditions,Clouds,dailyrainin,SoftwareType,DateUTC
2013-12-18 00:02:00,33.0,21.0,29.41,North,0,0.0,0.0,60,0.00,,,0.00,,2013-12-18 05:02:00,
2013-12-18 00:12:00,33.0,21.0,29.41,North,0,0.0,0.0,60,0.00,,,0.00,,2013-12-18 05:12:00,
2013-12-18 00:42:00,31.0,22.0,29.41,North,0,0.0,0.0,68,0.00,,,0.00,,2013-12-18 05:42:00,
2013-12-18 00:53:00,31.0,22.0,29.41,North,0,0.0,0.0,68,0.00,,,0.00,,2013-12-18 05:53:00,
2013-12-18 01:12:00,30.0,20.0,29.41,North,0,0.0,0.0,65,0.00,,,0.00,,2013-12-18 06:12:00,
2013-12-18 01:22:00,28.0,19.0,29.41,North,0,0.0,0.0,68,0.00,,,0.00,,2013-12-18 06:22:00,
2013-12-18 01:32:00,28.0,19.0,29.41,North,0,0.0,0.0,68,0.00,,,0.00,,2013-12-18 06:32:00,
2013-12-18 01:42:00,28.0,19.0,29.41,North,0,0.0,0.0,68,0.00,,,0.00,,2013-12-18 06:42:00,
2013-12-18 01:53:00,27.0,20.0,29.41,North,0,0.0,0.0,76,0.00,,,0.00,,2013-12-18 06:53:00,
2013-12-18 02:12:00,26.0,20.0,29.41,North,0,0.0,0.0,78,0.00,,,0.00,,2013-12-18 07:12:00,
2013-12-18 02:22:00,26.0,20.0,29.41,North,0,0.0,0.0,78,0.00,,,0.00,,2013-12-18 07:22:00,
2013-12-18 03:12:00,25.0,20.0,29.41,North,0,0.0,0.0,82,0.00,,,0.00,,2013-12-18 08:12:00,
2013-12-18 03:22:00,25.0,21.0,29.41,North,0,0.0,4.0,85,0.00,,,0.00,,2013-12-18 08:22:00,
2013-12-18 03:42:00,25.0,22.0,29.44,North,0,0.0,0.0,88,0.00,,,0.00,,2013-12-18 08:42:00,
2013-12-18 03:52:00,26.0,23.0,29.44,North,0,0.0,0.0,90,0.00,,,0.00,,2013-12-18 08:52:00,
2013-12-18 04:11:00,26.0,23.0,29.44,North,0,0.0,0.0,89,0.00,,,0.00,,2013-12-18 09:11:00,
2013-12-18 04:22:00,26.0,23.0,29.44,North,0,0.0,0.0,88,0.00,,,0.00,,2013-12-18 09:22:00,
2013-12-18 04:43:00,25.0,21.0,29.44,North,0,0.0,0.0,83,0.00,,,0.00,,2013-12-18 09:43:00,
2013-12-18 04:53:00,24.0,20.0,29.44,North,0,0.0,0.0,83,0.00,,,0.00,,2013-12-18 09:53:00,
2013-12-18 05:13:00,24.0,20.0,29.44,North,0,0.0,0.0,84,0.00,,,0.00,,2013-12-18 10:13:00,
2013-12-18 05:23:00,24.0,20.0,29.44,North,0,0.0,0.0,85,0.00,,,0.00,,2013-12-18 10:23:00,
2013-12-18 05:42:00,24.0,20.0,29.44,North,0,0.0,0.0,86,0.00,,,0.00,,2013-12-18 10:42:00,
2013-12-18 05:52:00,23.0,20.0,29.47,North,0,0.0,0.0,87,0.00,,,0.00,,2013-12-18 10:52:00,
2013-12-18 06:03:00,23.0,20.0,29.47,North,0,0.0,0.0,87,0.00,,,0.00,,2013-12-18 11:03:00,
2013-12-18 06:12:00,23.0,20.0,29.47,North,0,0.0,0.0,87,0.00,,,0.00,,2013-12-18 11:12:00,
2013-12-18 06:23:00,22.0,20.0,29.47,North,0,0.0,0.0,90,0.00,,,0.00,,2013-12-18 11:23:00,
2013-12-18 06:42:00,22.0,20.0,29.47,North,0,0.0,0.0,91,0.00,,,0.00,,2013-12-18 11:42:00,
2013-12-18 06:53:00,22.0,20.0,29.47,North,0,0.0,0.0,92,0.00,,,0.00,,2013-12-18 11:53:00,
2013-12-18 07:11:00,22.0,20.0,29.47,North,0,0.0,0.0,93,0.00,,,0.00,,2013-12-18 12:11:00,
2013-12-18 07:22:00,21.0,20.0,29.47,North,0,0.0,0.0,94,0.00,,,0.00,,2013-12-18 12:22:00,
2013-12-18 07:42:00,21.0,20.0,29.47,North,0,0.0,0.0,94,0.00,,,0.00,,2013-12-18 12:42:00,
2013-12-18 07:53:00,21.0,20.0,29.47,North,0,0.0,0.0,94,0.00,,,0.00,,2013-12-18 12:53:00,
2013-12-18 08:12:00,21.0,20.0,29.50,North,0,0.0,0.0,97,0.00,,,0.00,,2013-12-18 13:12:00,
2013-12-18 08:22:00,21.0,20.0,29.50,North,0,0.0,0.0,97,0.00,,,0.00,,2013-12-18 13:22:00,
2013-12-18 08:42:00,22.0,21.0,29.50,North,0,0.0,0.0,97,0.00,,,0.00,,2013-12-18 13:42:00,
2013-12-18 08:52:00,23.0,22.0,29.50,North,0,0.0,0.0,97,0.00,,,0.00,,2013-12-18 13:52:00,
2013-12-18 09:02:00,23.0,22.0,29.50,North,0,0.0,0.0,97,0.00,,,0.00,,2013-12-18 14:02:00,
2013-12-18 09:11:00,23.0,22.0,29.50,North,0,0.0,0.0,97,0.00,,,0.00,,2013-12-18 14:11:00,
2013-12-18 09:22:00,23.0,22.0,29.50,North,0,0.0,0.0,97,0.00,,,0.00,,2013-12-18 14:22:00,
2013-12-18 09:42:00,28.0,27.0,29.50,North,0,0.0,0.0,97,0.00,,,0.00,,2013-12-18 14:42:00,
2013-12-18 09:44:00,31.0,26.0,29.50,NW,314,4.0,6.0,81,0.00,,,0.00,,2013-12-18 14:44:00,
2013-12-18 09:52:00,29.0,28.0,29.50,North,0,0.0,0.0,97,0.00,,,0.00,,2013-12-18 14:52:00,
2013-12-18 10:12:00,31.0,26.0,29.50,NW,314,4.0,6.0,81,0.00,,,0.00,,2013-12-18 15:12:00,
2013-12-18 10:22:00,31.0,26.0,29.50,NW,314,4.0,6.0,81,0.00,,,0.00,,2013-12-18 15:22:00,
2013-12-18 10:33:00,31.0,26.0,29.50,NW,314,4.0,6.0,81,0.00,,,0.00,,2013-12-18 15:33:00,
2013-12-18 10:54:00,37.0,22.0,29.53,North,0,0.0,4.0,54,0.00,,,0.00,,2013-12-18 15:54:00,
2013-12-18 11:13:00,38.0,20.0,29.53,North,0,0.0,4.0,48,0.00,,,0.00,,2013-12-18 16:13:00,
2013-12-18 11:23:00,38.0,20.0,29.53,North,0,0.0,4.0,48,0.00,,,0.00,,2013-12-18 16:23:00,
2013-12-18 11:33:00,38.0,20.0,29.53,North,0,0.0,4.0,48,0.00,,,0.00,,2013-12-18 16:33:00,
2013-12-18 11:42:00,38.0,20.0,29.53,North,0,0.0,4.0,48,0.00,,,0.00,,2013-12-18 16:42:00,
2013-12-18 11:53:00,40.0,17.0,29.50,SE,145,3.0,6.0,39,0.00,,,0.00,,2013-12-18 16:53:00,
2013-12-18 12:13:00,41.0,17.0,29.50,North,0,0.0,6.0,38,0.00,,,0.00,,2013-12-18 17:13:00,
2013-12-18 12:23:00,41.0,17.0,29.50,North,0,0.0,6.0,38,0.00,,,0.00,,2013-12-18 17:23:00,
2013-12-18 12:42:00,41.0,17.0,29.50,WSW,247,5.0,6.0,38,0.00,,,0.00,,2013-12-18 17:42:00,
2013-12-18 12:52:00,42.0,18.0,29.50,West,277,3.0,7.0,38,0.00,,,0.00,,2013-12-18 17:52:00,
2013-12-18 13:12:00,44.0,19.0,29.50,NNE,28,4.0,6.0,37,0.00,,,0.00,,2013-12-18 18:12:00,
2013-12-18 13:22:00,44.0,19.0,29.50,ENE,59,4.0,7.0,37,0.00,,,0.00,,2013-12-18 18:22:00,
2013-12-18 13:42:00,44.0,19.0,29.50,ENE,69,3.0,6.0,36,0.00,,,0.00,,2013-12-18 18:42:00,
2013-12-18 13:52:00,45.0,19.0,29.47,North,0,0.0,5.0,35,0.00,,,0.00,,2013-12-18 18:52:00,
2013-12-18 14:11:00,46.0,19.0,29.47,North,0,0.0,10.0,34,0.00,,,0.00,,2013-12-18 19:11:00,
2013-12-18 14:22:00,46.0,19.0,29.47,North,0,0.0,10.0,34,0.00,,,0.00,,2013-12-18 19:22:00,
2013-12-18 14:42:00,45.0,17.0,29.47,SSW,209,4.0,5.0,32,0.00,,,0.00,,2013-12-18 19:42:00,
2013-12-18 14:52:00,46.0,19.0,29.47,NNW,347,3.0,5.0,33,0.00,,,0.00,,2013-12-18 19:52:00,
2013-12-18 15:02:00,46.0,19.0,29.47,NNW,347,3.0,5.0,33,0.00,,,0.00,,2013-12-18 20:02:00,
2013-12-18 15:12:00,46.0,19.0,29.47,NNW,347,3.0,5.0,33,0.00,,,0.00,,2013-12-18 20:12:00,
2013-12-18 15:22:00,45.0,16.0,29.44,NW,309,3.0,5.0,31,0.00,,,0.00,,2013-12-18 20:22:00,
2013-12-18 15:42:00,46.0,17.0,29.44,North,11,4.0,6.0,31,0.00,,,0.00,,2013-12-18 20:42:00,
2013-12-18 15:53:00,46.0,17.0,29.44,North,0,0.0,4.0,31,0.00,,,0.00,,2013-12-18 20:53:00,
2013-12-18 16:11:00,46.0,16.0,29.44,North,0,0.0,5.0,30,0.00,,,0.00,,2013-12-18 21:11:00,
2013-12-18 16:22:00,45.0,15.0,29.44,WNW,288,4.0,6.0,30,0.00,,,0.00,,2013-12-18 21:22:00,
2013-12-18 16:33:00,45.0,15.0,29.44,WNW,288,4.0,6.0,30,0.00,,,0.00,,2013-12-18 21:33:00,
2013-12-18 16:43:00,45.0,15.0,29.44,WNW,288,4.0,6.0,30,0.00,,,0.00,,2013-12-18 21:43:00,
2013-12-18 16:53:00,45.0,15.0,29.44,North,0,0.0,0.0,30,0.00,,,0.00,,2013-12-18 21:53:00,
2013-12-18 17:13:00,44.0,15.0,29.44,North,0,0.0,4.0,31,0.00,,,0.00,,2013-12-18 22:13:00,
2013-12-18 17:23:00,44.0,15.0,29.44,NW,311,4.0,5.0,31,0.00,,,0.00,,2013-12-18 22:23:00,
2013-12-18 17:43:00,42.0,16.0,29.44,North,0,0.0,4.0,34,0.00,,,0.00,,2013-12-18 22:43:00,
2013-12-18 17:52:00,39.0,14.0,29.44,North,0,0.0,0.0,36,0.00,,,0.00,,2013-12-18 22:52:00,
2013-12-18 18:02:00,39.0,14.0,29.44,North,0,0.0,0.0,36,0.00,,,0.00,,2013-12-18 23:02:00,
2013-12-18 18:12:00,39.0,14.0,29.44,North,0,0.0,0.0,36,0.00,,,0.00,,2013-12-18 23:12:00,
2013-12-18 18:42:00,35.0,16.0,29.41,North,0,0.0,0.0,45,0.00,,,0.00,,2013-12-18 23:42:00,
2013-12-18 18:53:00,33.0,15.0,29.44,North,0,0.0,0.0,47,0.00,,,0.00,,2013-12-18 23:53:00,
2013-12-18 19:11:00,33.0,16.0,29.44,North,0,0.0,0.0,50,0.00,,,0.00,,2013-12-19 00:11:00,
2013-12-18 19:22:00,33.0,18.0,29.41,North,0,0.0,6.0,54,0.00,,,0.00,,2013-12-19 00:22:00,
2013-12-18 19:32:00,33.0,18.0,29.41,North,0,0.0,6.0,54,0.00,,,0.00,,2013-12-19 00:32:00,
2013-12-18 19:42:00,33.0,18.0,29.41,North,0,0.0,6.0,54,0.00,,,0.00,,2013-12-19 00:42:00,
2013-12-18 19:52:00,30.0,19.0,29.44,North,0,0.0,0.0,63,0.00,,,0.00,,2013-12-19 00:52:00,
2013-12-18 20:12:00,29.0,17.0,29.44,North,0,0.0,0.0,61,0.00,,,0.00,,2013-12-19 01:12:00,
2013-12-18 20:22:00,29.0,17.0,29.44,North,0,0.0,0.0,61,0.00,,,0.00,,2013-12-19 01:22:00,
2013-12-18 20:42:00,29.0,19.0,29.44,North,0,0.0,0.0,65,0.00,,,0.00,,2013-12-19 01:42:00,
2013-12-18 20:52:00,28.0,18.0,29.44,North,0,0.0,0.0,67,0.00,,,0.00,,2013-12-19 01:52:00,
2013-12-18 21:01:00,28.0,18.0,29.44,North,0,0.0,0.0,67,0.00,,,0.00,,2013-12-19 02:01:00,
2013-12-18 21:11:00,28.0,18.0,29.44,North,0,0.0,0.0,67,0.00,,,0.00,,2013-12-19 02:11:00,
2013-12-18 21:22:00,26.0,20.0,29.44,North,0,0.0,0.0,77,0.00,,,0.00,,2013-12-19 02:22:00,
2013-12-18 21:52:00,26.0,20.0,29.44,North,0,0.0,0.0,77,0.00,,,0.00,,2013-12-19 02:52:00,
2013-12-18 22:12:00,26.0,20.0,29.44,North,0,0.0,0.0,77,0.00,,,0.00,,2013-12-19 03:12:00,
2013-12-18 22:22:00,25.0,20.0,29.44,North,0,0.0,0.0,80,0.00,,,0.00,,2013-12-19 03:22:00,
2013-12-18 22:33:00,25.0,20.0,29.44,North,0,0.0,0.0,80,0.00,,,0.00,,2013-12-19 03:33:00,
2013-12-18 22:43:00,25.0,20.0,29.44,North,0,0.0,0.0,80,0.00,,,0.00,,2013-12-19 03:43:00,
2013-12-18 22:54:00,25.0,20.0,29.44,North,0,0.0,0.0,80,0.00,,,0.00,,2013-12-19 03:54:00,
2013-12-18 23:13:00,24.0,20.0,29.44,North,0,0.0,0.0,86,0.00,,,0.00,,2013-12-19 04:13:00,
2013-12-18 23:23:00,24.0,20.0,29.44,North,0,0.0,0.0,86,0.00,,,0.00,,2013-12-19 04:23:00,
2013-12-18 23:33:00,24.0,20.0,29.44,North,0,0.0,0.0,86,0.00,,,0.00,,2013-12-19 04:33:00,
2013-12-18 23:43:00,24.0,20.0,29.44,North,0,0.0,0.0,86,0.00,,,0.00,,2013-12-19 04:43:00,